Wind_Speed
9 10 10 9 9 8 8 8 8 8 9 10 10 10 10 10 10 10 10 9 9 9 9 9 9 9 9 8 9 9 8 7 7 6 6 5 5 4 4 4 4 4 5
7 8 8 7 7 6 6 6 6 6 7 7 8 8 8 9 9 8 8 7 7 7 7 7 7 8 7 7 7 7 6 6 6 5 5 4 4 3 3 3 3 4 4
4 5 5 4 4 4 4 5 5 5 5 6 6 6 7 7 7 7 6 6 6 5 5 5 6 6 6 6 5 5 5 5 4 4 4 3 3 2 2 2 2 3 4
2 2 3 3 3 4 4 5 6 6 6 6 6 6 6 6 6 6 6 5 5 5 4 4 5 5 5 5 5 4 4 4 3 3 3 2 1 1 1 1 3 4 5
2 3 3 4 5 6 6 7 8 8 8 7 7 6 6 6 6 6 6 5 5 5 5 5 5 5 5 5 4 4 4 3 3 2 2 1 1 1 2 2 3 5 5
4 4 4 5 7 8 8 8 9 9 9 8 7 7 7 7 7 7 7 6 6 6 6 6 6 6 6 5 5 4 4 4 3 2 2 2 1 2 3 3 4 5 6
5 6 6 7 8 9 9 9 9 9 9 9 8 8 8 8 9 8 8 8 8 8 8 8 8 8 7 7 7 6 5 5 4 4 4 3 3 3 3 4 5 6 7
6 7 7 8 9 10 10 10 10 10 10 10 10 10 11 11 11 11 11 11 11 11 10 10 10 10 10 9 9 8 8 7 7 6 6 6 5 5 5 5 6 6 7
7 8 8 9 10 11 11 11 11 11 11 12 13 13 14 14 14 14 14 14 14 14 13 13 13 13 13 12 12 11 11 10 10 9 9 8 8 7 7 6 6 7 7
9 9 10 11 12 12 12 13 13 13 14 14 15 16 17 17 18 18 18 18 18 17 17 17 16 16 16 16 16 15 14 14 13 13 12 12 11 10 10 9 8 8 8
11 12 13 14 15 15 16 16 16 16 17 17 18 18 19 20 21 21 22 22 22 21 21 21 20 20 20 20 20 19 18 17 17 16 16 15 15 14 13 12 11 10 10
15 16 17 18 19 19 20 20 21 21 22 22 23 23 24 24 25 26 26 26 26 26 26 25 25 24 24 24 24 23 22 21 20 20 20 19 18 18 17 16 15 14 13
19 21 22 23 24 25 25 26 26 26 26 27 27 28 28 29 30 31 31 31 31 31 31 30 30 29 29 28 27 26 26 25 24 24 24 23 23 22 21 20 19 18 17
23 25 26 27 28 29 29 30 30 30 30 31 31 32 32 32 33 34 35 35 35 35 35 35 34 34 33 32 31 30 30 30 29 28 28 27 26 25 24 23 23 22 21
27 28 29 30 30 31 31 32 32 31 31 32 33 33 33 34 34 35 36 37 37 38 38 39 38 38 38 36 35 35 34 34 33 33 32 31 30 28 28 27 26 25 24
30 30 30 31 31 31 31 31 31 31 30 31 32 33 33 34 34 34 34 35 37 39 40 40 40 39 39 39 39 38 39 38 37 36 36 35 33 32 31 29 29 28 27
32 32 32 32 31 30 30 30 30 30 30 31 32 32 31 32 32 32 33 33 35 37 38 39 39 40 40 40 41 41 41 40 39 39 39 38 35 35 34 32 31 31 29
34 34 33 33 32 31 30 30 30 29 30 30 30 30 29 30 30 30 31 31 33 34 35 36 37 39 40 40 40 40 40 40 39 38 37 36 36 35 35 33 32 31 30
34 35 35 34 33 32 31 30 29 28 28 28 28 28 28 28 27 28 28 28 30 31 31 32 34 35 37 39 39 39 38 38 38 38 36 35 35 35 34 33 32 32 32
35 36 36 35 34 33 32 30 29 27 27 26 26 26 26 26 26 27 27 28 29 29 30 31 33 34 35 35 37 37 37 36 36 36 36 36 35 34 34 33 33 33 32
36 37 37 35 34 33 32 30 28 27 26 25 24 24 24 24 25 26 27 27 28 29 30 31 32 33 33 35 36 36 35 35 35 34 34 34 33 33 35 34 34 33 32
37 37 37 37 35 33 32 30 28 27 26 25 23 23 23 23 23 24 25 26 27 28 29 31 32 33 33 35 36 35 36 35 34 34 33 32 32 33 34 34 34 34 33
37 37 37 36 34 33 32 30 28 27 25 24 23 23 23 23 23 23 24 25 26 27 29 30 32 33 34 35 36 36 36 34 34 33 31 30 30 30 32 33 33 33 33
36 36 36 35 35 34 32 30 29 27 26 25 24 24 24 23 23 24 25 25 26 27 28 30 31 33 34 35 36 37 37 36 34 32 30 30 30 30 30 31 31 32 33
35 35 36 36 35 34 33 32 30 29 28 27 27 26 26 25 25 25 26 26 27 28 29 30 31 33 34 35 36 37 37 37 36 34 31 31 31 31 30 31 31 31 33
34 35 36 36 35 35 34 33 31 31 30 30 29 28 28 28 27 27 27 27 28 29 30 31 32 33 35 35 36 37 37 37 36 35 34 32 32 32 31 31 31 31 33
Wind_Direction
77 75 72 67 61 56 51 49 50 55 59 63 64 65 64 63 64 67 68 67 65 63 61 59 58 57 56 57 59 60 59 59 58 59 63 67 74 83 98 114 124 134 144
76 73 69 63 56 48 39 33 32 37 42 48 51 53 53 53 54 57 59 60 58 55 51 50 51 51 50 51 54 58 58 58 58 58 59 62 68 78 95 123 138 147 153
71 66 62 53 39 27 15 4 2 5 11 20 26 31 36 38 39 40 41 43 44 41 38 36 36 37 38 39 41 47 52 52 52 53 56 59 63 76 93 135 165 176 176
38 32 30 12 354 345 338 333 333 335 339 346 355 4 11 16 19 18 17 17 17 18 19 19 18 18 19 22 24 25 29 33 37 41 46 52 61 99 154 180 194 197 197
317 331 335 327 320 316 314 314 316 319 323 327 333 340 345 350 353 353 353 352 351 351 351 350 350 351 352 357 2 3 1 359 3 13 20 26 29 214 212 208 210 208 206
294 304 309 309 307 306 305 306 308 310 314 317 319 322 324 326 328 329 329 328 327 327 327 326 325 326 326 326 328 330 332 331 325 320 321 316 295 247 227 224 221 213 211
286 289 294 296 297 298 299 301 304 306 308 309 310 310 310 311 311 311 311 311 310 309 309 310 310 308 309 308 306 306 306 302 300 300 293 287 283 266 243 232 229 224 217
284 284 286 288 290 292 295 297 299 300 302 303 303 303 303 303 302 301 301 302 302 301 299 299 299 298 296 295 295 292 290 290 285 283 282 279 276 270 261 251 240 231 224
284 284 283 284 285 287 289 292 295 297 297 298 299 299 298 298 297 296 295 295 295 294 292 290 291 291 290 289 288 285 282 281 280 277 276 274 274 273 268 264 253 240 232
285 285 284 284 285 287 288 291 293 295 295 296 296 296 295 294 294 292 291 291 290 289 287 285 285 286 286 285 284 281 278 276 276 275 275 273 272 272 270 266 260 253 245
288 287 287 287 287 288 290 292 293 293 292 293 294 295 294 292 290 289 287 286 286 285 283 281 281 282 281 281 281 278 276 274 273 273 273 272 270 271 270 267 263 260 254
291 290 289 288 289 289 290 291 291 291 291 290 290 291 291 289 287 286 285 283 282 282 280 278 277 277 277 277 278 276 275 273 273 271 272 270 269 268 268 267 264 260 257
292 292 291 291 290 289 289 289 289 289 289 289 289 288 287 286 285 283 282 282 280 279 278 276 275 275 274 274 274 274 274 273 271 270 270 269 267 267 267 267 264 261 259
293 292 292 292 292 291 290 290 289 288 288 288 288 288 286 286 285 283 282 281 279 278 277 275 274 273 272 272 271 272 272 271 270 269 268 267 265 265 265 265 263 261 259
293 294 294 294 293 292 291 290 290 288 289 288 288 287 287 286 285 284 282 281 279 278 276 275 274 272 270 269 268 269 269 269 270 270 269 267 266 263 262 262 260 261 259
293 295 295 293 292 291 291 291 290 291 290 288 287 287 286 285 285 285 284 281 279 277 277 276 275 272 271 269 268 267 268 268 268 269 268 267 265 263 260 258 257 257 257
294 295 295 295 294 294 293 293 292 291 291 290 290 289 288 287 286 286 285 284 282 279 278 277 275 275 273 272 270 268 268 268 269 269 267 267 266 263 260 257 255 255 256
293 294 295 296 297 296 295 295 294 293 292 292 292 291 290 289 287 287 287 285 284 284 281 279 278 277 275 273 270 270 269 270 270 271 271 270 267 264 258 255 254 253 253
290 292 294 296 298 299 299 299 295 294 294 294 292 291 291 290 290 290 289 289 288 288 286 284 280 279 277 275 272 270 270 269 269 272 272 269 267 264 258 254 253 253 254
288 291 293 295 298 298 299 298 296 295 295 294 292 291 291 292 292 292 291 291 290 290 290 288 286 282 282 279 275 273 271 271 271 271 270 267 266 264 258 253 251 252 253
286 290 291 294 296 297 297 297 295 295 295 294 294 293 292 293 294 294 293 292 292 291 290 289 288 285 284 282 280 279 278 277 275 275 272 269 266 263 259 253 250 251 251
284 288 289 293 295 295 295 295 294 295 295 294 294 294 293 293 295 295 294 293 293 293 292 290 288 287 286 285 284 281 280 279 279 277 276 272 267 262 258 252 250 251 250
286 289 290 292 293 294 295 295 296 296 295 295 293 293 293 294 295 296 296 295 294 295 294 292 289 287 286 284 282 281 280 279 277 278 278 272 269 265 257 252 250 250 248
286 288 289 290 292 294 294 295 296 296 296 295 294 294 293 294 295 297 297 296 296 296 296 294 291 288 286 284 281 280 280 279 276 275 273 274 271 266 261 255 251 249 248
284 286 287 290 292 294 294 295 295 295 295 294 294 293 292 292 293 294 296 296 296 297 297 296 292 290 287 285 282 279 277 276 275 273 271 272 269 264 261 257 254 252 251
283 285 287 289 291 293 293 293 293 293 292 292 292 291 291 290 291 292 294 295 297 297 297 297 294 292 289 286 283 279 276 274 272 270 267 267 267 263 259 255 253 253 252
Height
5928 5926 5925 5925 5924 5924 5923 5922 5921 5919 5918 5916 5915 5913 5912 5911 5910 5909 5908 5906 5905 5904 5903 5902 5901 5900 5899 5898 5896 5895 5894 5893 5892 5891 5890 5889 5889 5888 5888 5888 5888 5888 5888
5929 5927 5926 5926 5925 5924 5924 5923 5921 5920 5918 5917 5915 5914 5913 5912 5911 5909 5908 5907 5906 5905 5904 5903 5902 5900 5899 5898 5897 5896 5895 5894 5893 5892 5891 5890 5889 5889 5889 5888 5888 5889 5889
5929 5927 5927 5926 5925 5925 5924 5923 5921 5920 5918 5917 5915 5914 5913 5912 5911 5910 5909 5908 5907 5905 5904 5903 5902 5901 5900 5899 5898 5897 5896 5895 5894 5892 5891 5890 5890 5889 5889 5889 5889 5889 5889
5928 5927 5927 5926 5926 5925 5924 5923 5921 5920 5918 5917 5915 5914 5913 5912 5911 5910 5909 5908 5907 5906 5905 5903 5902 5901 5900 5899 5898 5897 5896 5895 5894 5893 5892 5891 5890 5890 5889 5889 5889 5889 5889
5928 5927 5926 5926 5925 5924 5923 5922 5921 5919 5918 5916 5915 5914 5913 5911 5911 5910 5909 5908 5907 5906 5905 5903 5902 5901 5900 5899 5898 5897 5896 5895 5894 5894 5893 5891 5890 5890 5889 5889 5889 5889 5889
5927 5926 5925 5925 5924 5923 5922 5921 5920 5918 5917 5916 5914 5913 5912 5911 5910 5909 5908 5907 5906 5905 5904 5903 5902 5900 5899 5898 5897 5896 5896 5895 5894 5893 5892 5892 5891 5890 5889 5889 5889 5888 5889
5925 5924 5924 5923 5922 5922 5920 5919 5918 5917 5916 5914 5913 5912 5911 5910 5909 5908 5907 5906 5905 5904 5903 5902 5901 5900 5898 5897 5896 5895 5895 5894 5893 5893 5892 5891 5891 5890 5889 5889 5888 5888 5888
5924 5923 5922 5921 5920 5920 5919 5918 5916 5915 5914 5913 5912 5910 5909 5908 5907 5906 5905 5904 5903 5902 5901 5900 5899 5898 5897 5896 5895 5894 5894 5893 5892 5892 5891 5890 5890 5889 5889 5888 5887 5887 5887
5922 5921 5920 5919 5918 5917 5916 5915 5914 5913 5912 5911 5910 5909 5907 5906 5905 5904 5903 5902 5901 5900 5899 5898 5897 5896 5895 5894 5893 5893 5892 5891 5890 5890 5889 5889 5889 5888 5888 5887 5886 5886 5886
5920 5919 5918 5917 5916 5915 5914 5913 5912 5911 5910 5908 5907 5906 5904 5903 5902 5901 5900 5899 5898 5897 5896 5895 5894 5893 5893 5892 5891 5890 5889 5888 5888 5887 5887 5887 5887 5886 5886 5885 5885 5884 5884
5918 5917 5916 5915 5914 5913 5912 5911 5909 5908 5907 5905 5904 5902 5901 5900 5898 5897 5896 5895 5894 5893 5892 5891 5890 5890 5889 5888 5887 5886 5886 5885 5885 5884 5884 5884 5884 5884 5883 5883 5883 5883 5882
5916 5915 5914 5913 5912 5910 5909 5907 5906 5905 5903 5901 5900 5899 5897 5895 5894 5892 5891 5890 5889 5888 5887 5886 5885 5884 5883 5883 5882 5882 5881 5881 5881 5880 5880 5880 5880 5880 5880 5880 5880 5879 5879
5913 5912 5911 5909 5908 5906 5905 5903 5902 5900 5898 5897 5895 5894 5892 5890 5888 5887 5885 5884 5883 5882 5881 5880 5879 5878 5878 5877 5877 5876 5876 5875 5875 5875 5875 5875 5875 5875 5875 5875 5876 5876 5876
5910 5908 5907 5905 5903 5902 5900 5898 5897 5895 5893 5891 5889 5888 5886 5884 5882 5880 5879 5877 5876 5875 5874 5873 5872 5871 5871 5871 5870 5870 5869 5869 5869 5869 5869 5869 5869 5869 5870 5870 5870 5871 5871
5905 5904 5902 5900 5898 5896 5894 5892 5890 5888 5887 5885 5883 5881 5879 5877 5875 5873 5872 5870 5868 5867 5866 5865 5864 5864 5863 5863 5863 5863 5862 5862 5862 5862 5862 5862 5862 5863 5864 5864 5864 5865 5866
5900 5899 5897 5895 5892 5890 5888 5886 5884 5881 5880 5877 5875 5873 5871 5869 5868 5866 5864 5862 5860 5859 5858 5857 5856 5855 5855 5855 5854 5854 5853 5853 5854 5854 5854 5854 5854 5855 5856 5857 5858 5859 5859
5895 5893 5891 5889 5886 5884 5882 5880 5877 5875 5873 5870 5868 5866 5864 5862 5860 5858 5857 5855 5853 5850 5849 5848 5847 5846 5846 5846 5845 5845 5845 5845 5845 5845 5845 5845 5846 5847 5848 5849 5850 5851 5853
5889 5887 5885 5883 5880 5878 5876 5873 5870 5868 5866 5863 5861 5859 5856 5854 5852 5850 5849 5847 5845 5842 5841 5840 5839 5837 5837 5836 5836 5835 5835 5836 5836 5836 5835 5835 5836 5837 5839 5840 5842 5843 5845
5883 5881 5878 5876 5873 5871 5869 5866 5863 5861 5859 5856 5854 5852 5849 5847 5845 5843 5841 5839 5837 5835 5833 5832 5830 5828 5828 5827 5826 5826 5826 5826 5827 5827 5827 5827 5827 5828 5829 5831 5834 5836 5837
5877 5875 5872 5870 5867 5864 5862 5860 5857 5855 5852 5850 5847 5845 5842 5840 5838 5836 5834 5832 5830 5828 5826 5824 5822 5821 5820 5818 5817 5816 5817 5817 5817 5817 5817 5818 5818 5819 5820 5822 5825 5827 5829
5871 5868 5866 5863 5860 5858 5855 5853 5851 5848 5846 5843 5840 5838 5836 5833 5831 5829 5827 5825 5823 5821 5819 5817 5815 5813 5812 5810 5809 5808 5808 5808 5808 5808 5808 5809 5810 5810 5811 5813 5816 5818 5820
5864 5861 5858 5856 5853 5851 5849 5846 5844 5841 5839 5836 5834 5831 5829 5827 5825 5823 5821 5818 5816 5814 5812 5810 5808 5806 5805 5803 5801 5800 5800 5801 5801 5800 5800 5800 5801 5801 5803 5805 5807 5810 5812
5856 5853 5851 5848 5846 5844 5841 5839 5836 5834 5832 5830 5827 5825 5823 5821 5819 5816 5814 5812 5810 5807 5805 5803 5800 5798 5797 5795 5793 5792 5792 5793 5793 5793 5793 5793 5793 5794 5795 5796 5799 5801 5803
5848 5845 5843 5841 5839 5836 5834 5831 5829 5827 5825 5823 5820 5818 5816 5814 5812 5809 5807 5805 5803 5800 5798 5795 5793 5790 5789 5787 5785 5784 5783 5783 5784 5785 5786 5785 5786 5786 5787 5789 5790 5793 5795
5840 5837 5835 5833 5830 5828 5826 5824 5822 5820 5818 5815 5813 5811 5809 5806 5804 5802 5800 5798 5795 5793 5790 5787 5785 5782 5780 5778 5777 5776 5775 5774 5775 5776 5777 5778 5778 5778 5779 5780 5782 5785 5787
5832 5829 5827 5824 5822 5820 5818 5816 5814 5812 5810 5808 5806 5804 5801 5799 5797 5795 5792 5790 5787 5785 5782 5780 5777 5774 5771 5769 5768 5767 5766 5766 5766 5766 5768 5769 5769 5770 5771 5773 5774 5777 5778